{"data":{"norad_id":41028,"epoch":"2026-05-25T02:28:37.599744Z","epoch_age_seconds":66887,"freshness":"FRESH","line1":"1 41028U 15065A   26145.10321296 -.00000261  00000+0  00000+0 0  9992","line2":"2 41028   0.0087 245.3849 0004041 178.3937 309.5779  1.00273404 38567","mean_motion":1.00273404,"eccentricity":0.0004041,"inclination_deg":0.0087,"raan_deg":245.3849,"arg_perigee_deg":178.3937,"mean_anomaly_deg":309.5779,"bstar":0,"rev_number":3856,"period_min":1436.0737170147,"perigee_km":35769.102518045,"apogee_km":35803.179687607,"semimajor_km":42164.278102826,"source":"CELESTRAK","updated_at":"2026-05-25T13:38:24.341454Z"}}